When you browse on this site, cookies collect data to enhance your experience and personalize the content and advertising you see.
Visit our Privacy Policy to learn more. By continuing to use the site, you agree to this use of cookies and data.
  • In Romania
  • List of Countries
  • For 7 days
  • Water Temperature
  • Weather Map
  • Weather Widgets
  • user-avatar
    Login

    Hourly Weather Lunsar

    Today, 3 April, Friday

    Time Temperature Precipitation Wind Pressure Humidity
    00:00 +29°C° 0 mm 1 mps 752 mmHg 81%
    01:00 +28°C° 0 mm 1 mps 751 mmHg 82%
    02:00 +28°C° 0 mm 1 mps 751 mmHg 84%
    03:00 +28°C° 0 mm 1 mps 751 mmHg 85%
    04:00 +25°C° 0 mm 0 mps 751 mmHg 87%
    05:00 +25°C° 0 mm 0 mps 751 mmHg 88%
    06:00 +29°C° 0 mm 1 mps 751 mmHg 82%
    07:00 +30°C° 0 mm 1 mps 752 mmHg 75%
    08:00 +31°C° 0 mm 1 mps 752 mmHg 69%
    09:00 +34°C° 0 mm 1 mps 752 mmHg 59%
    10:00 +36°C° 0 mm 1 mps 752 mmHg 49%
    11:00 +40°C° 0 mm 1 mps 751 mmHg 40%
    12:00 +41°C° 0 mm 1 mps 751 mmHg 35%
    13:00 +42°C° 0 mm 1 mps 750 mmHg 30%
    14:00 +44°C° 0 mm 1 mps 749 mmHg 26%
    15:00 +42°C° 0 mm 2 mps 749 mmHg 32%
    16:00 +39°C° 0 mm 3 mps 749 mmHg 39%
    17:00 +37°C° 0 mm 3 mps 749 mmHg 46%
    18:00 +35°C° 0 mm 3 mps 749 mmHg 54%
    19:00 +33°C° 0 mm 3 mps 750 mmHg 62%
    20:00 +30°C° 0 mm 3 mps 751 mmHg 71%
    21:00 +30°C° 0 mm 2 mps 751 mmHg 73%
    22:00 +30°C° 0 mm 2 mps 752 mmHg 75%
    23:00 +29°C° 0 mm 1 mps 752 mmHg 78%

    Tomorrow, 4 April, Saturday

    Time Temperature Precipitation Wind Pressure Humidity
    00:00 +29°C° 0 mm 1 mps 752 mmHg 79%
    01:00 +29°C° 0 mm 1 mps 752 mmHg 80%
    02:00 +29°C° 0 mm 1 mps 751 mmHg 81%
    03:00 +29°C° 0 mm 1 mps 751 mmHg 83%
    04:00 +28°C° 0 mm 1 mps 751 mmHg 84%
    05:00 +28°C° 0 mm 1 mps 751 mmHg 86%
    06:00 +29°C° 0 mm 1 mps 752 mmHg 81%
    07:00 +30°C° 0 mm 1 mps 752 mmHg 76%
    08:00 +31°C° 0 mm 1 mps 753 mmHg 71%
    09:00 +33°C° 0 mm 1 mps 753 mmHg 63%
    10:00 +35°C° 0 mm 1 mps 752 mmHg 55%
    11:00 +37°C° 0 mm 1 mps 752 mmHg 46%
    12:00 +37°C° 0 mm 1 mps 751 mmHg 45%
    13:00 +37°C° 0 mm 1 mps 751 mmHg 43%
    14:00 +39°C° 0 mm 1 mps 750 mmHg 41%
    15:00 +37°C° 0 mm 1 mps 750 mmHg 42%
    16:00 +38°C° 0 mm 2 mps 750 mmHg 42%
    17:00 +38°C° 0 mm 2 mps 749 mmHg 42%
    18:00 +36°C° 0 mm 2 mps 750 mmHg 50%
    19:00 +34°C° 0 mm 2 mps 751 mmHg 58%
    20:00 +31°C° 0 mm 2 mps 751 mmHg 66%
    21:00 +30°C° 0 mm 2 mps 751 mmHg 69%
    22:00 +30°C° 0 mm 1 mps 752 mmHg 73%
    23:00 +29°C° 0 mm 1 mps 752 mmHg 77%

    Day after tomorrow, 5 April, Sunday

    Time Temperature Precipitation Wind Pressure Humidity
    00:00 +29°C° 0 mm 1 mps 752 mmHg 79%
    01:00 +29°C° 0 mm 1 mps 751 mmHg 82%
    02:00 +28°C° 0 mm 1 mps 751 mmHg 85%
    03:00 +28°C° 0 mm 1 mps 752 mmHg 86%
    04:00 +28°C° 0 mm 1 mps 752 mmHg 88%
    05:00 +26°C° 0 mm 0 mps 752 mmHg 90%
    06:00 +29°C° 0 mm 1 mps 753 mmHg 82%
    07:00 +30°C° 0 mm 1 mps 753 mmHg 74%
    08:00 +32°C° 0 mm 1 mps 754 mmHg 67%
    09:00 +35°C° 0 mm 1 mps 753 mmHg 57%
    10:00 +39°C° 0 mm 1 mps 753 mmHg 47%
    11:00 +38°C° 0 mm 0 mps 752 mmHg 38%
    12:00 +42°C° 0 mm 1 mps 752 mmHg 34%
    13:00 +43°C° 0 mm 1 mps 751 mmHg 30%
    14:00 +44°C° 0 mm 1 mps 750 mmHg 26%
    15:00 +42°C° 0 mm 2 mps 750 mmHg 32%
    16:00 +40°C° 0 mm 2 mps 750 mmHg 37%
    17:00 +38°C° 0 mm 3 mps 749 mmHg 43%
    18:00 +36°C° 0 mm 3 mps 750 mmHg 51%
    19:00 +34°C° 0 mm 3 mps 751 mmHg 60%
    20:00 +31°C° 0 mm 2 mps 751 mmHg 68%
    21:00 +30°C° 0 mm 2 mps 752 mmHg 71%
    22:00 +30°C° 0 mm 2 mps 752 mmHg 73%
    23:00 +30°C° 0 mm 1 mps 752 mmHg 76%

    6 April, Monday

    Time Temperature Precipitation Wind Pressure Humidity
    00:00 +29°C° 0 mm 1 mps 752 mmHg 78%
    01:00 +29°C° 0 mm 1 mps 752 mmHg 80%
    02:00 +29°C° 0 mm 1 mps 752 mmHg 82%
    03:00 +28°C° 0 mm 1 mps 751 mmHg 84%
    04:00 +28°C° 0 mm 1 mps 751 mmHg 85%
    05:00 +28°C° 0 mm 1 mps 751 mmHg 87%
    06:00 +29°C° 0 mm 1 mps 752 mmHg 80%
    07:00 +30°C° 0 mm 1 mps 753 mmHg 74%
    08:00 +32°C° 0 mm 1 mps 753 mmHg 67%
    09:00 +33°C° 0 mm 1 mps 753 mmHg 62%
    10:00 +35°C° 0 mm 2 mps 753 mmHg 57%
    11:00 +36°C° 0 mm 2 mps 752 mmHg 52%
    12:00 +38°C° 0 mm 2 mps 752 mmHg 47%
    13:00 +39°C° 0 mm 2 mps 751 mmHg 43%
    14:00 +40°C° 0 mm 2 mps 750 mmHg 39%
    15:00 +39°C° 0 mm 2 mps 750 mmHg 42%
    16:00 +38°C° 0 mm 3 mps 750 mmHg 44%
    17:00 +37°C° 0 mm 3 mps 750 mmHg 47%
    18:00 +35°C° 0 mm 3 mps 750 mmHg 54%
    19:00 +33°C° 0 mm 3 mps 751 mmHg 61%
    20:00 +30°C° 0 mm 3 mps 751 mmHg 68%
    21:00 +30°C° 0 mm 2 mps 752 mmHg 71%
    22:00 +29°C° 0 mm 1 mps 752 mmHg 74%
    23:00 +29°C° 0 mm 1 mps 753 mmHg 77%

    7 April, Tuesday

    Time Temperature Precipitation Wind Pressure Humidity
    00:00 +29°C° 0 mm 1 mps 752 mmHg 79%
    01:00 +26°C° 0 mm 0 mps 752 mmHg 81%
    02:00 +26°C° 0 mm 0 mps 751 mmHg 83%
    03:00 +26°C° 0 mm 0 mps 751 mmHg 85%
    04:00 +25°C° 0 mm 0 mps 752 mmHg 86%
    05:00 +25°C° 0 mm 0 mps 752 mmHg 88%
    06:00 +29°C° 0 mm 1 mps 752 mmHg 80%
    07:00 +30°C° 0 mm 1 mps 753 mmHg 72%
    08:00 +32°C° 0 mm 1 mps 753 mmHg 65%
    09:00 +33°C° 0 mm 1 mps 753 mmHg 59%
    10:00 +36°C° 0 mm 2 mps 752 mmHg 53%
    11:00 +37°C° 0 mm 2 mps 752 mmHg 48%
    12:00 +38°C° 0 mm 2 mps 751 mmHg 44%
    13:00 +39°C° 0 mm 2 mps 751 mmHg 41%
    14:00 +40°C° 0 mm 2 mps 750 mmHg 38%
    15:00 +38°C° 0.2 mm 2 mps 750 mmHg 44%
    16:00 +36°C° 0.2 mm 3 mps 750 mmHg 50%
    17:00 +34°C° 0.2 mm 3 mps 750 mmHg 56%
    18:00 +32°C° 1 mm 2 mps 751 mmHg 64%
    19:00 +30°C° 1 mm 1 mps 751 mmHg 72%
    20:00 +27°C° 1 mm 0 mps 752 mmHg 80%
    21:00 +26°C° 0.1 mm 0 mps 752 mmHg 81%
    22:00 +28°C° 0.1 mm 1 mps 753 mmHg 82%
    23:00 +28°C° 0.1 mm 1 mps 753 mmHg 83%

    8 April, Wednesday

    Time Temperature Precipitation Wind Pressure Humidity
    00:00 +28°C° 0 mm 1 mps 752 mmHg 85%
    01:00 +27°C° 0 mm 1 mps 752 mmHg 87%
    02:00 +27°C° 0 mm 1 mps 751 mmHg 88%
    03:00 +25°C° 0 mm 0 mps 751 mmHg 90%
    04:00 +25°C° 0 mm 0 mps 751 mmHg 91%
    05:00 +25°C° 0 mm 0 mps 751 mmHg 92%
    06:00 +28°C° 0 mm 1 mps 752 mmHg 86%
    07:00 +29°C° 0 mm 1 mps 752 mmHg 79%
    08:00 +30°C° 0 mm 1 mps 753 mmHg 72%
    09:00 +32°C° 0 mm 1 mps 752 mmHg 66%
    10:00 +34°C° 0 mm 2 mps 752 mmHg 59%
    11:00 +36°C° 0 mm 2 mps 752 mmHg 52%
    12:00 +36°C° 0 mm 2 mps 751 mmHg 51%
    13:00 +37°C° 0 mm 2 mps 751 mmHg 50%
    14:00 +37°C° 0 mm 2 mps 750 mmHg 48%
    15:00 +36°C° 0 mm 3 mps 750 mmHg 50%
    16:00 +36°C° 0 mm 3 mps 750 mmHg 52%
    17:00 +35°C° 0 mm 3 mps 750 mmHg 53%
    18:00 +33°C° 0.6 mm 3 mps 750 mmHg 61%
    19:00 +31°C° 0.6 mm 3 mps 751 mmHg 69%
    20:00 +29°C° 0.6 mm 2 mps 752 mmHg 77%
    21:00 +28°C° 0.2 mm 2 mps 752 mmHg 80%
    22:00 +28°C° 0.2 mm 2 mps 752 mmHg 82%
    23:00 +28°C° 0.2 mm 1 mps 752 mmHg 85%
    Show more